Stevens Point, WI

12:45 AM CST on December 06, 2019 (GMT -0600)
Stevens Point Municipal

Weather History for KSTE - October, 2019

Change the Weather History Date:

Wednesday, October 2, 2019

  Actual Average Record
Temperature  
Mean Temperature 48 °F -  
Max Temperature 52 °F 65 °F 90 °F (1976)
Min Temperature 44 °F 42 °F 21 °F (2003)
Degree Days  
Heating Degree Days 17    
Moisture  
Dew Point 46 °F    
Average Humidity 95    
Maximum Humidity 100    
Minimum Humidity 81    
Precipitation  
Precipitation 0.30 in - - ()
Sea Level Pressure  
Sea Level Pressure 30.04 in    
Wind  
Wind Speed 12 mph (ENE)    
Max Wind Speed 16 mph    
Max Gust Speed 23 mph    
Visibility 9 miles    
Events Rain    
Averages and records for this station are not official NWS values.
T = Trace of Precipitation, MM = Missing Value Source: NWS Daily Summary

Daily Weather History Graph

Daily Weather History Graph

Search for Another Location

Airport or City:

Astronomy

Oct. 02, 2019 Rise Set
Actual Time 6:56 AM CDT 6:37 PM CDT
Civil Twilight 6:27 AM CDT 7:06 PM CDT
Nautical Twilight 5:54 AM CDT 7:39 PM CDT
Astronomical Twilight 5:19 AM CDT 8:14 PM CDT
Moon 11:32 AM CDT (10/2) 9:20 PM CDT (10/2)
Length of Visible Light 12h 38m
Length of Day
11h 40m
Waxing Crescent, 20% of the Moon is Illuminated
Oct 2
Waxing Crescent
Oct 5
First Quarter
Oct 13
Full
Oct 21
Last Quarter
Oct 27
New

Hourly Weather History & Observations

Time (CDT) Temp. Windchill Dew Point Humidity Pressure Visibility Wind Dir Wind Speed Gust Speed Precip Events Conditions
12:15 AM 52.7 °F - 52.7 °F 100% 29.98 in 10.0 mi ENE 15.0 mph - 0.02 in Rain Light Rain
12:35 AM 52.7 °F - 52.7 °F 100% 29.98 in 10.0 mi ENE 10.4 mph - 0.02 in Rain Rain
12:55 AM 52.3 °F - 52.3 °F 100% 29.98 in 10.0 mi NE 12.7 mph - 0.03 in Rain Light Rain
1:15 AM 51.4 °F - 51.4 °F 100% 29.99 in 7.0 mi NE 10.4 mph - N/A Rain Rain
1:35 AM 50.9 °F - 50.9 °F 100% 29.96 in 4.0 mi ENE 12.7 mph 17.3 mph 0.01 in   Drizzle
1:55 AM 50.9 °F - 50.9 °F 100% 29.97 in 7.0 mi ENE 13.8 mph 19.6 mph 0.01 in   Overcast
2:15 AM 50.9 °F - 50.9 °F 100% 29.99 in 10.0 mi NE 12.7 mph 17.3 mph N/A   Overcast
2:35 AM 50.4 °F - 50.4 °F 100% 30.00 in 10.0 mi NE 11.5 mph 19.6 mph N/A   Overcast
2:55 AM 50.0 °F - 50.0 °F 100% 29.99 in 10.0 mi ENE 10.4 mph - N/A   Overcast
3:15 AM 49.5 °F - 49.5 °F 100% 29.99 in 10.0 mi ENE 8.1 mph - N/A   Overcast
3:35 AM 49.1 °F - 48.2 °F 97% 29.99 in 10.0 mi ENE 11.5 mph 18.4 mph N/A   Overcast
3:55 AM 48.6 °F - 48.4 °F 99% 30.01 in 10.0 mi NE 11.5 mph - N/A   Overcast
4:15 AM 48.2 °F - 48.2 °F 100% 30.01 in 7.0 mi NE 8.1 mph - N/A   Overcast
4:35 AM 47.8 °F - 47.8 °F 100% 30.01 in 7.0 mi NE 11.5 mph 17.3 mph N/A   Light Drizzle
4:55 AM 47.8 °F - 47.8 °F 100% 30.02 in 10.0 mi NE 11.5 mph 19.6 mph N/A   Overcast
5:15 AM 47.8 °F - 47.8 °F 100% 30.02 in 10.0 mi NE 11.5 mph - N/A   Overcast
5:35 AM 47.8 °F - 47.7 °F 99% 30.03 in 10.0 mi NE 9.2 mph - N/A   Overcast
5:55 AM 47.5 °F - 47.3 °F 99% 30.04 in 10.0 mi NE 11.5 mph - N/A   Overcast
6:15 AM 47.5 °F - 46.9 °F 98% 30.04 in 10.0 mi NE 10.4 mph - N/A   Overcast
6:35 AM 47.7 °F - 47.3 °F 99% 30.05 in 10.0 mi NNE 6.9 mph - N/A   Overcast
6:55 AM 47.5 °F - 47.1 °F 99% 30.04 in 10.0 mi NE 11.5 mph - N/A   Overcast
7:15 AM 47.5 °F - 46.9 °F 98% 30.04 in 10.0 mi NE 11.5 mph - N/A   Overcast
7:35 AM 47.7 °F - 46.4 °F 95% 30.04 in 10.0 mi NE 10.4 mph - N/A   Overcast
7:55 AM 47.5 °F - 46.4 °F 96% 30.06 in 10.0 mi NE 10.4 mph - N/A   Overcast
8:15 AM 47.5 °F - 46.2 °F 95% 30.06 in 10.0 mi ENE 9.2 mph - N/A   Overcast
8:35 AM 47.7 °F - 46.0 °F 94% 30.07 in 10.0 mi ENE 13.8 mph 18.4 mph N/A   Overcast
8:55 AM 47.7 °F - 46.4 °F 95% 30.06 in 10.0 mi ENE 12.7 mph 18.4 mph N/A   Overcast
9:15 AM 47.8 °F - 46.4 °F 95% 30.06 in 10.0 mi ENE 12.7 mph - N/A   Overcast
9:35 AM 48.2 °F - 46.4 °F 93% 30.07 in 10.0 mi ENE 11.5 mph 16.1 mph N/A   Overcast
9:55 AM 48.4 °F - 46.4 °F 93% 30.08 in 10.0 mi NE 12.7 mph - N/A   Overcast
10:15 AM 47.7 °F - 46.8 °F 97% 30.09 in 10.0 mi NE 12.7 mph 19.6 mph N/A   Overcast
10:35 AM 49.3 °F - 46.2 °F 89% 30.09 in 10.0 mi NE 11.5 mph - N/A   Overcast
10:55 AM 49.5 °F - 45.7 °F 87% 30.09 in 10.0 mi ENE 15.0 mph - N/A   Overcast
11:15 AM 49.3 °F - 45.5 °F 87% 30.10 in 10.0 mi NE 11.5 mph - N/A   Overcast
11:35 AM 49.5 °F - 45.5 °F 86% 30.09 in 10.0 mi ENE 12.7 mph - N/A   Overcast
11:55 AM 49.5 °F - 45.5 °F 86% 30.09 in 10.0 mi NNE 16.1 mph - N/A   Overcast
12:15 PM 49.1 °F - 45.7 °F 88% 30.10 in 10.0 mi NE 11.5 mph - N/A   Overcast
12:35 PM 49.1 °F - 45.0 °F 86% 30.10 in 10.0 mi ENE 12.7 mph 19.6 mph N/A   Overcast
12:55 PM 49.1 °F - 45.0 °F 86% 30.10 in 10.0 mi ENE 13.8 mph - N/A   Overcast
1:15 PM 48.6 °F - 44.2 °F 85% 30.09 in 10.0 mi ENE 15.0 mph 23.0 mph N/A   Overcast
1:35 PM 49.1 °F - 44.2 °F 83% 30.08 in 10.0 mi ENE 11.5 mph 16.1 mph N/A   Overcast
1:55 PM 49.3 °F - 43.9 °F 82% 30.08 in 10.0 mi ENE 9.2 mph 12.7 mph N/A   Overcast
2:15 PM 49.1 °F - 44.4 °F 84% 30.07 in 10.0 mi ENE 11.5 mph - N/A   Overcast
2:35 PM 49.3 °F - 43.5 °F 81% 30.07 in 10.0 mi East 12.7 mph 17.3 mph N/A   Overcast
2:55 PM 48.4 °F - 44.1 °F 85% 30.07 in 10.0 mi ENE 12.7 mph 19.6 mph N/A Rain Light Rain
3:15 PM 47.8 °F - 45.1 °F 90% 30.07 in 10.0 mi East 9.2 mph 16.1 mph N/A Rain Light Rain
3:35 PM 48.6 °F - 44.8 °F 87% 30.06 in 10.0 mi East 10.4 mph 16.1 mph N/A   Overcast
3:55 PM 48.6 °F - 44.4 °F 86% 30.05 in 10.0 mi East 13.8 mph - N/A   Overcast
4:35 PM 47.8 °F - 43.7 °F 86% 30.06 in 10.0 mi ENE 8.1 mph - N/A   Overcast
4:55 PM 47.7 °F - 43.7 °F 86% 30.07 in 10.0 mi ENE 6.9 mph - N/A   Overcast
5:15 PM 46.6 °F - 45.1 °F 95% 30.06 in 10.0 mi NE 6.9 mph - 0.01 in Rain Light Rain
5:35 PM 45.9 °F 39.7 °F 45.5 °F 99% 30.06 in 7.0 mi NE 13.8 mph - 0.04 in Rain Rain
5:55 PM 45.5 °F 39.2 °F 45.5 °F 100% 30.07 in 10.0 mi NNE 13.8 mph - 0.05 in Rain Light Rain
6:15 PM 45.5 °F 39.2 °F 45.3 °F 99% 30.06 in 10.0 mi NE 13.8 mph - 0.01 in Rain Light Rain
6:35 PM 45.0 °F 39.7 °F 45.0 °F 100% 30.06 in 10.0 mi NE 10.4 mph - 0.04 in Rain Rain
6:55 PM 45.0 °F 40.6 °F 45.0 °F 100% 30.06 in 10.0 mi NE 8.1 mph - 0.07 in Rain Light Rain
7:15 PM 44.6 °F 39.7 °F 44.6 °F 100% 30.06 in 7.0 mi ENE 9.2 mph - 0.05 in Rain Light Rain
7:35 PM 44.6 °F 40.2 °F 44.6 °F 100% 30.06 in 7.0 mi ENE 8.1 mph - 0.08 in Rain Rain
7:55 PM 44.6 °F 40.2 °F 44.6 °F 100% 30.06 in 10.0 mi ENE 8.1 mph - 0.11 in Rain Light Rain
8:15 PM 44.6 °F 39.2 °F 44.6 °F 100% 30.05 in 10.0 mi ENE 10.4 mph 16.1 mph N/A   Drizzle
8:35 PM 44.6 °F 40.2 °F 44.6 °F 100% 30.04 in 10.0 mi ENE 8.1 mph 17.3 mph 0.01 in Rain Light Rain
8:55 PM 44.6 °F 38.8 °F 44.6 °F 100% 30.03 in 10.0 mi ENE 11.5 mph - 0.02 in Rain Rain
9:15 PM 44.6 °F 39.2 °F 44.6 °F 100% 30.04 in 10.0 mi ENE 10.4 mph - N/A Rain Light Rain
9:35 PM 44.6 °F 39.2 °F 44.6 °F 100% 30.04 in 10.0 mi ENE 10.4 mph - 0.01 in   Light Drizzle
9:55 PM 44.6 °F 39.2 °F 44.6 °F 100% 30.03 in 10.0 mi ENE 10.4 mph - 0.01 in   Light Drizzle
10:15 PM 44.6 °F 38.1 °F 44.6 °F 100% 30.02 in 4.0 mi ENE 13.8 mph 19.6 mph N/A   Light Drizzle
10:35 PM 44.2 °F 37.3 °F 44.2 °F 100% 30.02 in 3.0 mi East 15.0 mph 18.4 mph N/A   Drizzle
10:55 PM 44.2 °F 38.4 °F 44.2 °F 100% 30.01 in 3.0 mi ENE 11.5 mph - N/A   Drizzle
11:15 PM 44.4 °F 38.2 °F 44.4 °F 100% 30.00 in 4.0 mi ENE 12.7 mph 17.3 mph N/A   Light Drizzle
11:35 PM 44.6 °F 39.7 °F 44.6 °F 100% 29.99 in 3.0 mi ENE 9.2 mph 17.3 mph N/A   Light Drizzle
11:55 PM 44.6 °F 38.8 °F 44.6 °F 100% 29.99 in 3.0 mi ENE 11.5 mph 17.3 mph N/A   Drizzle